Location: Unspecified
(0.0000°N, 0.0000°E)
Time: 21:11:22
(UTC+00:00)

N. Korean satellite - Pass Details

Date: 03 June 2023
Orbit: 364 x 379 km, 97.3° (Epoch: 04 June)

Event Time Altitude Azimuth Distance (km) Brightness Sun altitude
Rises 04:40:45 0° 36° (NE) 2,239 11.0 -17.8°
Reaches altitude 10° 04:43:08 10° 57° (ENE) 1,390 10.1 -17.3°
Maximum altitude 04:45:12 17° 101° (E) 1,037 9.0 -16.8°
Drops below altitude 10° 04:47:15 10° 145° (SE) 1,391 9.0 -16.4°
Sets 04:49:38 0° 166° (SSE) 2,243 9.9 -15.8°
